Location: Huntsville
(41.2590°N, 111.7678°W)
Time: 19:21:20
(UTC+00:00)

Vanguard 3 - Pass Details

Date: 14 June 2021
Orbit: 508 x 3261 km, 33.4° (Epoch: 28 July)

Event Time Altitude Azimuth Distance (km) Brightness Sun altitude
Rises 15:00:06 0° 206° (SSW) 2,638 9.5 32.2°
Reaches altitude 10° 15:03:07 10° 177° (S) 1,902 9.2 32.7°
Maximum altitude 15:05:13 13° 147° (SSE) 1,840 9.5 33.1°
Drops below altitude 10° 15:07:38 10° 118° (ESE) 2,279 10.5 33.6°
Sets 15:11:59 0° 93° (E) 3,695 11.6 34.4°
